TimeMDT,TemperatureF,Dew PointF,Humidity,Sea Level PressureIn,VisibilityMPH,Wind Direction,Wind SpeedMPH,Gust SpeedMPH,PrecipitationIn,Events,Conditions,WindDirDegrees,DateUTC
12:55 AM,52.0,30.9,45,29.95,10.0,ENE,6.9,-,N/A,,Scattered Clouds,70,2013-05-07 06:55:00
1:55 AM,48.0,30.9,52,29.94,10.0,ENE,5.8,-,N/A,,Scattered Clouds,70,2013-05-07 07:55:00
2:55 AM,48.0,32.0,54,29.93,10.0,ENE,4.6,-,N/A,,Mostly Cloudy,70,2013-05-07 08:55:00
3:55 AM,48.0,32.0,54,29.92,10.0,Calm,Calm,-,N/A,,Partly Cloudy,0,2013-05-07 09:55:00
4:55 AM,45.0,32.0,60,29.92,10.0,East,5.8,-,N/A,,Partly Cloudy,100,2013-05-07 10:55:00
5:55 AM,45.0,32.0,60,29.93,10.0,Calm,Calm,-,N/A,,Clear,0,2013-05-07 11:55:00
6:55 AM,46.9,34.0,61,29.94,10.0,Calm,Calm,-,N/A,,Partly Cloudy,0,2013-05-07 12:55:00
7:55 AM,54.0,37.0,53,29.93,10.0,SE,4.6,-,N/A,,Scattered Clouds,140,2013-05-07 13:55:00
8:55 AM,60.1,39.0,46,29.91,10.0,South,6.9,-,N/A,,Overcast,170,2013-05-07 14:55:00
9:55 AM,66.9,41.0,39,29.89,10.0,South,10.4,-,N/A,,Partly Cloudy,190,2013-05-07 15:55:00
10:55 AM,70.0,43.0,38,29.88,10.0,SSE,8.1,-,N/A,,Mostly Cloudy,160,2013-05-07 16:55:00
11:55 AM,73.0,44.1,35,29.86,10.0,South,11.5,20.7,N/A,,Mostly Cloudy,180,2013-05-07 17:55:00
12:55 PM,73.0,43.0,34,29.83,10.0,South,6.9,17.3,N/A,,Overcast,170,2013-05-07 18:55:00
1:55 PM,66.9,44.1,44,29.83,10.0,ESE,13.8,-,0.00,Rain,Light Rain,120,2013-05-07 19:55:00
2:55 PM,60.1,46.9,62,29.86,10.0,ESE,16.1,-,0.00,Rain,Light Rain,120,2013-05-07 20:55:00
3:02 PM,60.8,46.4,59,29.87,2.0,ESE,16.1,-,0.00,Rain,Light Rain,120,2013-05-07 21:02:00
3:12 PM,59.0,48.2,67,29.86,10.0,ESE,12.7,-,0.00,Rain,Light Rain,120,2013-05-07 21:12:00
3:55 PM,57.9,48.0,70,29.86,10.0,SE,16.1,25.3,0.01,Rain,Light Rain,140,2013-05-07 21:55:00
4:55 PM,57.0,48.0,72,29.85,10.0,SSE,17.3,25.3,0.01,,Mostly Cloudy,160,2013-05-07 22:55:00
5:55 PM,59.0,48.9,69,29.83,10.0,SSE,15.0,-,N/A,,Scattered Clouds,150,2013-05-07 23:55:00
6:55 PM,59.0,46.9,64,29.83,10.0,ESE,9.2,-,N/A,,Clear,120,2013-05-08 00:55:00
7:55 PM,59.0,46.0,62,29.84,10.0,SSE,16.1,29.9,0.00,Rain,Light Rain,150,2013-05-08 01:55:00
8:02 PM,59.0,44.6,59,29.87,10.0,ESE,9.2,-,0.00,Rain,Light Rain,120,2013-05-08 02:02:00
8:55 PM,55.9,46.0,69,29.85,10.0,South,10.4,20.7,0.00,,Mostly Cloudy,170,2013-05-08 02:55:00
9:55 PM,54.0,46.9,77,29.86,10.0,South,15.0,-,N/A,,Mostly Cloudy,180,2013-05-08 03:55:00
10:55 PM,52.0,46.0,80,29.86,10.0,North,3.5,-,N/A,,Clear,350,2013-05-08 04:55:00
11:55 PM,48.9,44.1,83,29.87,10.0,Calm,Calm,-,N/A,,Clear,0,2013-05-08 05:55:00